DLH447 KDEN-EDDF

Flight info

Callsign DLH447
Flight time N/A
Altitude 37000
Route CHUWY1 CHUWY KD75Y KP87A GABOV 5230N09000W 5730N08000W 61N070W FEDDY IKMAN EMBOK 64N050W 64N040W 6330N03000W 62N020W ORTAV ODPEX TOPPA SOGPO DIXAT DIXA1A
Aircraft A359/H-SDE2E3GHIJ3J4J5LM1ORWXY/LB1D1

Departure

Time 2026-05-04 04:04
Airport Denver International Airport (KDEN)

Arrival

Time N/A
Airport Frankfurt Main Airport (EDDF)
Time Latitude Longitude Altitude Speed Heading
2026-05-04 03:30 39.85445 -104.67227 5388 ft 0 kts 187°
2026-05-04 03:51 39.85448 -104.67226 5387 ft 3 kts 186°
2026-05-04 03:52 39.85475 -104.67224 5388 ft 4 kts 183°
2026-05-04 03:52 39.85502 -104.67222 5389 ft 4 kts 183°
2026-05-04 03:52 39.85527 -104.67220 5386 ft 4 kts 186°
2026-05-04 03:52 39.85546 -104.67212 5382 ft 4 kts 260°
2026-05-04 03:53 39.85542 -104.67181 5385 ft 4 kts 282°
2026-05-04 03:53 39.85540 -104.67162 5381 ft 1 kts 270°
2026-05-04 03:53 39.85540 -104.67159 5389 ft 0 kts 270°
2026-05-04 03:56 39.85541 -104.67189 5385 ft 7 kts 273°
2026-05-04 03:56 39.85549 -104.67257 5382 ft 7 kts 282°
2026-05-04 03:57 39.85560 -104.67325 5382 ft 8 kts 282°
2026-05-04 03:57 39.85574 -104.67410 5383 ft 11 kts 282°
2026-05-04 03:57 39.85587 -104.67513 5386 ft 13 kts 276°
2026-05-04 03:57 39.85593 -104.67635 5388 ft 14 kts 271°
2026-05-04 03:58 39.85595 -104.67901 5388 ft 14 kts 270°
2026-05-04 03:58 39.85596 -104.68029 5388 ft 14 kts 270°
2026-05-04 03:58 39.85597 -104.68151 5383 ft 13 kts 270°
2026-05-04 03:59 39.85597 -104.68272 5385 ft 13 kts 269°
2026-05-04 03:59 39.85597 -104.68403 5383 ft 16 kts 272°
2026-05-04 03:59 39.85556 -104.68508 5375 ft 13 kts 198°
2026-05-04 03:59 39.85476 -104.68515 5380 ft 10 kts 180°
2026-05-04 04:00 39.85404 -104.68516 5384 ft 11 kts 180°
2026-05-04 04:00 39.85308 -104.68517 5384 ft 16 kts 180°
2026-05-04 04:00 39.85216 -104.68561 5379 ft 15 kts 236°
2026-05-04 04:00 39.85201 -104.68710 5372 ft 19 kts 270°
2026-05-04 04:01 39.85199 -104.68904 5364 ft 23 kts 269°
2026-05-04 04:01 39.85196 -104.69131 5355 ft 27 kts 270°
2026-05-04 04:01 39.85199 -104.69355 5348 ft 19 kts 271°
2026-05-04 04:01 39.85200 -104.69447 5346 ft 9 kts 270°
2026-05-04 04:02 39.85201 -104.69532 5346 ft 9 kts 270°
2026-05-04 04:02 39.85201 -104.69619 5347 ft 9 kts 271°
2026-05-04 04:02 39.85233 -104.69657 5345 ft 6 kts 349°
2026-05-04 04:02 39.85252 -104.69657 5343 ft 0 kts
2026-05-04 04:03 39.85276 -104.69657 5345 ft 12 kts
2026-05-04 04:03 39.85573 -104.69653 5345 ft 74 kts
2026-05-04 04:03 39.86307 -104.69648 5342 ft 134 kts
2026-05-04 04:03 39.87432 -104.69630 5344 ft 188 kts
2026-05-04 04:04 39.88763 -104.69594 6032 ft 189 kts
2026-05-04 04:04 39.90052 -104.69549 6806 ft 186 kts 357°
2026-05-04 04:04 39.91363 -104.69502 7303 ft 190 kts 356°
2026-05-04 04:04 39.92712 -104.69440 7546 ft 203 kts 357°
2026-05-04 04:05 39.94189 -104.69347 7750 ft 220 kts 356°
2026-05-04 04:05 39.95792 -104.69354 7968 ft 240 kts 354°
2026-05-04 04:05 39.97513 -104.69375 8232 ft 259 kts 356°
2026-05-04 04:05 39.99394 -104.69369 8489 ft 278 kts 358°
2026-05-04 04:06 40.01370 -104.69338 8997 ft 286 kts 358°
2026-05-04 04:06 40.03337 -104.69157 9654 ft 289 kts
2026-05-04 04:06 40.05223 -104.68180 10264 ft 298 kts 27°
2026-05-04 04:06 40.07045 -104.66714 10563 ft 314 kts 30°
2026-05-04 04:07 40.08927 -104.65103 10759 ft 330 kts 31°
2026-05-04 04:07 40.10871 -104.63441 11059 ft 345 kts 30°
2026-05-04 04:07 40.12931 -104.61693 11342 ft 359 kts 30°
2026-05-04 04:07 40.15080 -104.59876 11618 ft 373 kts 30°
2026-05-04 04:08 40.17278 -104.58021 11993 ft 382 kts 30°
2026-05-04 04:08 40.19533 -104.56117 12509 ft 386 kts 30°
2026-05-04 04:08 40.21785 -104.54216 13071 ft 389 kts 30°
2026-05-04 04:08 40.24091 -104.52268 13649 ft 392 kts 30°
2026-05-04 04:09 40.26364 -104.50349 14163 ft 395 kts 30°
2026-05-04 04:09 40.28685 -104.48388 14630 ft 399 kts 30°
2026-05-04 04:09 40.31043 -104.46394 15086 ft 403 kts 30°
2026-05-04 04:09 40.33422 -104.44381 15571 ft 407 kts 30°
2026-05-04 04:10 40.35787 -104.42377 16057 ft 411 kts 29°
2026-05-04 04:10 40.38211 -104.40323 16562 ft 415 kts 29°
2026-05-04 04:10 40.40652 -104.38252 17043 ft 419 kts 29°
2026-05-04 04:10 40.43115 -104.36161 17528 ft 423 kts 29°
2026-05-04 04:11 40.45583 -104.34063 18030 ft 427 kts 29°
2026-05-04 04:11 40.48083 -104.31936 18533 ft 429 kts 28°
2026-05-04 04:11 40.50603 -104.29790 19021 ft 431 kts 28°
2026-05-04 04:11 40.53110 -104.27652 19493 ft 433 kts 29°
2026-05-04 04:12 40.55665 -104.25462 19989 ft 437 kts 30°
2026-05-04 04:12 40.58067 -104.23033 20459 ft 444 kts 38°
2026-05-04 04:12 40.60260 -104.20137 20981 ft 448 kts 43°
2026-05-04 04:12 40.62385 -104.17114 21564 ft 449 kts 43°
2026-05-04 04:13 40.64492 -104.14093 22072 ft 452 kts 43°
2026-05-04 04:13 40.66636 -104.11020 22582 ft 455 kts 43°
2026-05-04 04:13 40.68794 -104.07931 23092 ft 458 kts 43°
2026-05-04 04:13 40.70932 -104.04869 23589 ft 460 kts 43°
2026-05-04 04:14 40.73112 -104.01747 24009 ft 463 kts 43°
2026-05-04 04:14 40.75310 -103.98596 24394 ft 466 kts 43°
2026-05-04 04:14 40.77494 -103.95463 24777 ft 470 kts 43°
2026-05-04 04:14 40.79716 -103.92272 25149 ft 473 kts 43°
2026-05-04 04:15 40.81953 -103.89056 25536 ft 476 kts 43°
2026-05-04 04:15 40.84209 -103.85810 25921 ft 479 kts 43°
2026-05-04 04:15 40.86442 -103.82592 26327 ft 481 kts 43°
2026-05-04 04:15 40.88719 -103.79308 26714 ft 484 kts 43°
2026-05-04 04:16 40.91003 -103.76012 27052 ft 487 kts 43°
2026-05-04 04:16 40.93282 -103.72719 27422 ft 490 kts 43°
2026-05-04 04:16 40.95605 -103.69357 27797 ft 493 kts 43°
2026-05-04 04:16 40.97904 -103.66026 28219 ft 495 kts 43°
2026-05-04 04:17 41.00243 -103.62635 28587 ft 498 kts 43°
2026-05-04 04:17 41.02595 -103.59221 28937 ft 501 kts 43°
2026-05-04 04:17 41.04926 -103.55833 29231 ft 504 kts 43°
2026-05-04 04:17 41.07299 -103.52379 29536 ft 507 kts 43°
2026-05-04 04:18 41.09682 -103.48908 29848 ft 509 kts 43°
2026-05-04 04:18 41.12078 -103.45413 30072 ft 513 kts 42°
2026-05-04 04:18 41.14481 -103.41902 30408 ft 512 kts 43°
2026-05-04 04:18 41.16845 -103.38443 30790 ft 511 kts 42°
2026-05-04 04:19 41.19235 -103.34944 31148 ft 510 kts 42°
2026-05-04 04:19 41.21618 -103.31451 31502 ft 509 kts 42°
2026-05-04 04:19 41.23985 -103.27981 31777 ft 510 kts 42°
2026-05-04 04:19 41.26377 -103.24469 32076 ft 509 kts 42°
2026-05-04 04:20 41.28760 -103.20964 32380 ft 509 kts 42°
2026-05-04 04:20 41.31110 -103.17503 32719 ft 508 kts 42°
2026-05-04 04:20 41.33480 -103.14009 33027 ft 508 kts 42°
2026-05-04 04:20 41.35855 -103.10506 33369 ft 507 kts 42°
2026-05-04 04:21 41.38192 -103.07052 33667 ft 506 kts 42°